OpenBCM V1.08-5-g2f4a (Linux)

Packet Radio Mailbox

IZ3LSV

[San Dona' di P. JN]

 Login: GUEST





  
CX2SA  > KEPS     13.07.12 05:45l 95 Lines 2463 Bytes #999 (0) @ WW
BID : ORB12194.O
Read: GUEST
Subj: Orbital Elements  12194.OSCAR
Path: IZ3LSV<IQ5KG<IK1NHL<CX2SA
Sent: 120713/0444Z @:CX2SA.SAL.URY.SA #:62995 [Salto] FBB7.00e $:ORB12194.O
From: CX2SA@CX2SA.SAL.URY.SA
To  : KEPS@AMSAT


HR AMSAT ORBITAL ELEMENTS FOR OSCAR SATELLITES
FROM WA5QGD FORT WORTH,TX July 12, 2012
Send SUBSCRIBE KEPS/UNSUBSCRIBE KEPS to majordomo@amsat.org only
BID: ORB12194.O
TO ALL RADIO AMATEURS BT

Satellite: AO-07
Catalog number: 07530
Epoch time:      12194.60327822
Element set:     428
Inclination:      101.4036 deg
RA of node:       190.8338 deg
Eccentricity:    0.0011577
Arg of perigee:   232.8870 deg
Mean anomaly:     127.1141 deg
Mean motion:   12.53590157 rev/day
Decay rate:       -2.7e-07 rev/day^2
Epoch rev:           72323
Checksum:              274

Satellite: FO-29
Catalog number: 24278
Epoch time:      12193.95805674
Element set:    0886
Inclination:      098.5875 deg
RA of node:       291.3723 deg
Eccentricity:    0.0350353
Arg of perigee:   325.3446 deg
Mean anomaly:     032.5305 deg
Mean motion:   13.52984864 rev/day
Decay rate:        5.0e-08 rev/day^2
Epoch rev:           78530
Checksum:              339

Satellite: SO-33
Catalog number: 25509
Epoch time:      12192.39712066
Element set:    0274
Inclination:      031.4308 deg
RA of node:       202.3369 deg
Eccentricity:    0.0351839
Arg of perigee:   046.3830 deg
Mean anomaly:     316.5434 deg
Mean motion:   14.28786688 rev/day
Decay rate:       3.10e-06 rev/day^2
Epoch rev:           71597
Checksum:              313

Satellite: RS-22
Catalog number: 27939
Epoch time:      12194.76318004
Element set:     531
Inclination:      097.8119 deg
RA of node:       034.2654 deg
Eccentricity:    0.0013518
Arg of perigee:   179.1610 deg
Mean anomaly:     180.9620 deg
Mean motion:   14.64064834 rev/day
Decay rate:       6.10e-06 rev/day^2
Epoch rev:           46962
Checksum:              301

Satellite: VO-52
Catalog number: 28650
Epoch time:      12193.81710304
Element set:    0152
Inclination:      097.5968 deg
RA of node:       223.5668 deg
Eccentricity:    0.0025518
Arg of perigee:   322.7160 deg
Mean anomaly:     037.2256 deg
Mean motion:   14.83036592 rev/day
Decay rate:      1.166e-05 rev/day^2
Epoch rev:           38862
Checksum:              310

Satellite: HO-68
Catalog number: 36122
Epoch time:      12194.90596312
Element set:     638
Inclination:      100.3600 deg
RA of node:       253.7329 deg
Eccentricity:    0.0007809
Arg of perigee:   053.2773 deg
Mean anomaly:     306.9057 deg
Mean motion:   13.16296647 rev/day
Decay rate:       -4.4e-07 rev/day^2
Epoch rev:           12377
Checksum:              304



Read previous mail | Read next mail


 22.12.2024 11:13:21lGo back Go up